Dewpoint
65 64 63 62 62 62 62 61 61 61 63 63 62 61 61 62 61 61 62 63 64 64 64 64 63 63 62 63 62 61 61 61 62 62 62 62 62 63 64 64 64 64 64 64 64 64 63 62 62 62 61 60 59 59 59 59 59 59 59 58 57 58 58 57 56 55 55 56 56 56 56 56 56 56 56 56 57 58 60 60 62 63 64 65 66
65 65 64 63 62 61 62 62 61 62 63 63 61 60 60 61 61 62 61 61 63 63 62 62 63 62 62 62 63 63 63 62 63 62 62 62 62 63 63 63 64 64 63 63 64 64 63 62 62 61 61 59 59 59 59 59 58 58 58 58 57 57 58 57 57 56 55 56 56 56 56 56 55 56 56 56 56 58 58 59 61 63 64 65 66
64 65 64 63 62 62 62 62 62 62 62 62 61 60 60 60 62 62 62 61 63 62 62 62 62 62 62 62 62 62 62 62 62 62 62 62 61 61 63 63 63 62 62 62 63 63 63 63 62 60 61 60 60 59 59 59 58 58 57 57 57 57 58 58 57 56 56 55 56 56 56 56 56 56 56 57 58 58 58 59 60 63 64 66 66
64 65 64 63 63 62 62 62 61 60 60 61 61 60 60 61 62 62 62 61 61 63 63 62 62 62 62 62 62 61 60 61 61 62 62 62 62 62 62 62 62 62 62 62 63 62 62 61 61 60 61 60 59 59 59 58 58 58 57 57 57 57 57 58 58 57 57 56 57 56 56 56 56 56 57 57 57 57 58 59 60 61 63 65 66
63 64 63 63 63 62 62 61 61 60 59 60 60 60 60 60 61 62 62 62 62 62 63 63 62 62 62 61 60 59 59 60 60 61 62 63 62 62 62 62 61 61 61 62 63 62 62 61 61 60 59 59 58 58 58 58 58 58 57 57 58 57 58 58 58 57 57 57 57 57 57 56 56 56 56 56 56 57 58 58 59 60 62 64 66
63 63 63 62 63 62 62 61 61 60 59 60 60 60 60 60 60 62 62 61 62 62 61 61 62 61 60 60 60 60 61 61 61 61 63 63 63 62 62 61 61 61 62 62 62 62 62 62 61 60 59 59 58 58 58 58 58 58 58 57 57 58 57 57 58 57 57 57 57 57 57 56 55 55 55 56 56 56 57 58 59 60 62 64 65
63 63 62 62 62 62 61 61 61 60 61 61 61 61 60 60 59 60 62 61 60 60 59 58 60 60 60 60 60 60 60 61 61 63 63 63 62 62 61 61 62 62 62 63 62 62 63 63 62 61 60 59 59 57 58 59 59 58 58 57 57 57 57 57 57 57 57 57 57 57 56 56 56 55 55 56 56 57 57 57 58 59 61 61 62
63 62 62 62 62 62 61 61 61 61 61 62 61 61 61 60 58 58 60 58 57 57 57 58 59 61 60 60 60 62 61 60 61 62 63 62 62 61 61 61 61 60 61 61 61 62 62 62 62 62 61 60 59 59 59 59 58 58 58 58 57 57 57 57 57 57 57 57 57 56 56 55 55 55 55 56 56 56 57 57 56 56 57 59 60
63 62 62 62 63 61 63 62 61 62 62 62 61 61 60 60 59 59 59 57 58 56 57 59 59 59 60 61 61 61 60 62 63 63 62 62 62 62 61 61 61 61 61 61 60 60 60 61 61 62 63 63 60 60 59 58 58 58 58 58 57 57 57 57 57 57 57 57 56 56 55 55 54 54 54 54 54 54 54 56 56 57 58 58 59
63 62 62 63 63 63 62 62 61 61 61 61 61 60 60 60 59 60 60 60 60 61 60 60 59 59 59 60 59 59 60 61 63 63 63 62 61 62 62 61 61 61 61 61 61 60 60 61 62 64 63 61 60 59 58 57 57 59 59 57 57 57 57 57 57 56 56 56 56 56 54 53 53 53 53 53 54 55 56 56 56 57 57 58 59
63 62 62 62 63 62 62 61 61 61 61 61 61 61 61 60 60 60 60 60 60 60 62 60 60 60 60 60 59 60 61 62 61 60 61 63 63 61 61 62 62 62 62 61 61 61 59 58 58 61 63 63 63 60 58 57 57 57 57 57 57 58 57 56 56 56 57 57 56 55 54 54 53 53 53 53 53 55 55 56 56 56 56 56 55
63 63 65 64 64 62 62 61 61 60 61 61 61 61 61 60 60 60 60 60 61 62 61 61 61 61 61 60 58 58 60 61 59 59 60 61 63 63 61 61 61 61 60 60 59 58 58 59 60 60 61 61 61 60 60 60 58 58 57 57 57 56 57 58 58 57 57 57 56 55 54 53 53 53 52 53 53 55 56 56 56 56 56 56 56
65 65 64 64 65 62 61 61 61 60 60 61 61 61 60 60 60 60 60 60 61 61 61 62 62 61 61 60 59 58 58 59 59 59 59 59 60 61 60 60 60 60 59 59 59 59 60 60 60 61 61 62 63 61 60 60 59 58 57 57 57 56 57 57 57 59 59 58 56 55 54 53 53 53 53 54 54 54 55 56 56 56 57 57 57
64 64 64 65 64 63 62 61 61 60 60 61 61 61 60 60 60 60 60 61 61 61 62 62 62 61 61 60 60 58 57 58 58 58 58 58 58 59 59 59 59 58 59 59 59 59 60 60 60 60 60 60 60 60 60 59 59 59 59 59 59 59 58 57 57 56 57 56 55 54 54 54 53 53 54 54 55 55 55 55 55 56 56 56 57
63 64 64 65 64 64 63 62 61 61 61 61 61 60 60 60 60 60 60 60 61 61 61 62 62 62 61 61 59 58 58 57 57 57 56 55 56 59 58 58 57 57 57 58 59 60 60 61 60 60 60 60 60 60 59 60 59 59 58 58 59 59 59 58 56 55 56 55 54 54 54 53 53 53 54 54 54 55 55 55 55 56 56 57 58
63 63 63 63 64 64 63 62 61 61 61 61 60 60 60 60 60 60 60 60 60 61 61 62 61 61 61 60 60 58 59 59 57 56 55 54 56 58 57 56 56 56 58 59 59 60 60 60 60 59 59 59 58 58 59 60 58 58 58 58 58 57 56 56 55 56 57 56 55 54 53 53 53 54 55 54 54 55 56 57 57 57 56 56 55
62 62 63 63 63 63 62 61 61 61 61 60 60 60 60 60 59 60 60 60 60 60 60 60 61 60 60 60 60 60 60 59 56 54 54 54 55 55 55 56 57 57 58 58 59 60 60 60 60 59 59 59 58 57 56 56 58 58 58 56 55 55 55 56 56 55 54 52 52 52 52 53 53 53 52 53 55 55 57 56 55 55 55 54 55
64 64 63 62 62 62 61 61 61 60 60 60 59 59 59 59 59 61 60 59 60 60 60 59 59 60 59 60 60 60 59 59 54 52 52 54 56 55 55 56 56 57 58 59 59 58 60 63 63 60 59 59 57 54 55 56 58 57 56 54 54 54 55 56 56 56 54 54 53 54 54 54 53 53 53 54 54 54 57 54 55 55 55 55 54
61 60 61 62 63 62 61 60 60 59 59 59 59 59 59 60 60 61 60 60 59 59 60 58 59 58 57 59 63 59 58 55 52 52 52 52 56 55 55 56 57 58 58 58 57 58 58 59 61 58 57 58 53 53 54 54 55 55 53 53 55 55 55 56 56 55 54 54 55 55 55 54 56 56 56 54 54 56 58 58 58 57 55 55 55
58 60 61 62 62 62 60 60 59 59 59 59 59 59 60 60 60 60 60 59 59 59 60 59 57 57 59 58 58 57 56 56 58 51 52 52 54 56 57 57 57 57 56 56 56 56 56 57 59 55 53 52 50 49 50 49 53 54 54 55 55 55 56 54 54 54 54 55 55 55 55 55 55 55 55 55 56 58 58 58 58 57 56 56 56
60 61 60 60 61 63 62 60 60 59 59 59 60 61 61 61 61 61 60 59 59 59 59 58 57 57 56 57 58 58 57 56 59 51 52 52 54 56 57 57 55 55 54 54 54 55 55 56 57 56 51 50 48 47 46 47 49 54 55 54 54 53 51 52 54 55 55 56 56 56 55 55 54 55 55 55 57 58 58 58 58 58 57 57 56
64 64 63 63 63 63 62 61 61 60 60 60 60 61 62 62 60 56 56 58 59 60 60 59 57 56 57 58 58 57 59 62 58 54 52 49 51 53 56 57 56 55 53 53 53 54 54 55 56 57 51 49 47 45 45 47 49 55 54 49 49 50 53 55 55 55 54 55 55 55 54 54 54 54 55 55 56 58 57 58 58 57 57 57 57
64 63 63 63 63 62 62 61 61 62 62 62 61 60 59 57 57 58 57 57 57 57 58 58 57 56 56 56 56 57 57 59 59 56 49 48 48 50 51 53 52 55 53 53 52 54 54 55 57 56 49 45 44 46 48 50 52 52 48 48 49 51 53 54 54 53 53 53 54 53 53 54 54 54 55 55 55 56 57 58 59 58 57 57 58
63 63 63 62 61 61 62 63 62 61 61 62 61 58 56 57 57 58 57 57 58 58 58 58 57 56 55 56 58 57 57 56 59 57 53 50 49 48 48 49 51 54 54 52 52 53 54 54 54 49 45 42 44 47 51 52 53 49 48 49 50 52 54 53 52 52 53 52 52 52 52 53 54 54 54 55 56 56 57 59 58 58 57 57 57
62 62 61 61 60 61 61 61 60 60 60 60 58 57 56 56 55 57 57 57 58 58 57 57 56 56 56 56 56 56 58 58 57 56 55 53 50 49 50 50 50 50 52 52 54 54 51 47 46 46 46 45 46 49 51 52 51 50 50 50 53 53 52 52 52 51 51 51 51 52 52 52 53 54 55 56 57 57 57 58 58 58 58 57 57
61 60 61 62 61 61 60 59 58 59 59 58 57 56 54 55 54 56 58 59 59 58 57 56 55 56 56 56 55 56 57 56 54 53 55 54 52 51 50 51 50 51 51 52 51 50 49 48 49 52 51 54 55 56 54 53 53 52 52 52 52 52 51 51 51 50 50 50 51 51 51 52 53 54 55 56 56 56 56 57 58 57 58 59 58
62 63 63 61 60 59 58 58 58 57 57 58 59 60 57 59 60 59 59 59 58 57 58 58 58 56 55 56 56 58 57 52 51 51 50 50 50 51 50 52 51 51 50 51 49 49 52 53 53 54 53 54 54 53 53 53 52 52 51 51 52 52 51 51 50 50 51 50 51 51 52 52 53 54 53 54 55 55 56 57 57 57 57 58 60
61 61 59 59 58 59 61 63 57 53 53 54 56 56 57 57 58 57 58 58 57 56 57 57 57 58 56 56 57 57 55 50 50 50 50 50 49 47 49 51 47 47 48 48 48 49 51 53 53 55 55 52 51 50 50 50 51 51 50 50 51 52 51 50 50 50 49 50 51 51 52 51 51 52 53 53 54 55 56 56 57 57 57 56 54
60 59 60 59 60 62 61 57 54 52 51 51 49 49 50 53 52 50 50 50 52 54 54 53 53 53 55 56 57 56 54 52 51 49 50 47 48 48 48 48 47 47 49 46 47 50 51 52 51 50 50 51 49 48 48 47 49 49 48 48 49 49 48 48 47 47 48 50 49 50 50 50 51 52 52 52 53 54 55 55 56 56 57 56 54
60 58 57 58 60 60 57 55 53 52 52 51 50 49 48 42 44 50 49 49 46 46 49 51 52 51 47 47 50 54 55 50 47 44 43 42 41 41 41 40 40 42 43 43 45 47 49 48 48 48 48 47 47 47 46 45 45 45 46 48 48 47 47 47 47 47 48 49 49 49 49 50 50 50 51 51 52 53 54 54 54 56 55 56 55
59 60 57 58 59 57 56 54 53 52 52 51 51 50 48 48 42 41 44 46 42 40 41 43 47 49 51 46 47 46 45 42 41 40 39 39 39 39 39 39 40 40 40 44 51 48 48 47 46 46 46 45 46 45 42 42 43 43 43 45 44 45 46 45 45 46 47 48 48 48 49 48 49 50 50 51 51 52 53 54 54 54 54 55 55
59 60 60 59 60 59 55 54 53 52 52 51 51 51 49 49 49 44 40 41 41 39 39 40 42 43 45 47 46 47 44 41 39 39 39 39 39 38 38 38 39 39 39 40 48 46 45 44 44 44 44 43 43 43 42 41 42 41 41 42 41 43 43 43 44 45 46 47 47 47 47 48 48 49 49 50 51 51 51 52 52 53 53 54 54
55 55 57 58 59 61 57 56 55 53 52 52 51 51 50 50 49 48 47 43 40 39 39 39 39 40 40 39 41 42 41 40 39 39 39 39 38 38 38 38 39 39 43 46 45 45 44 44 42 42 42 43 42 43 43 43 42 42 41 42 40 39 41 42 43 44 46 46 46 46 47 47 48 48 48 50 50 50 50 50 51 52 52 52 53
56 57 59 59 58 58 56 56 55 55 54 52 52 51 53 51 50 49 49 49 49 47 42 39 39 39 38 39 40 40 39 39 39 39 39 39 39 39 39 43 41 40 43 45 44 44 44 43 44 44 43 43 43 44 44 43 44 42 43 41 40 39 40 41 40 41 44 45 44 45 46 46 47 46 47 48 49 50 50 50 50 50 51 51 51
59 64 63 62 56 56 54 54 56 56 56 54 55 55 54 54 53 52 50 50 50 49 48 49 42 37 44 43 41 40 40 40 40 39 39 39 39 39 40 47 45 44 45 46 46 44 44 44 44 43 43 44 44 44 43 43 43 42 42 41 38 38 40 40 40 40 41 41 42 43 45 45 45 46 46 47 48 48 49 49 49 50 50 50 51
58 59 61 62 60 59 59 58 57 58 57 56 56 56 57 56 54 53 52 53 52 51 50 48 47 47 41 40 37 36 38 39 40 39 39 39 39 41 47 46 44 45 48 46 46 47 46 45 47 46 45 45 45 43 42 41 42 40 41 36 38 37 38 39 40 40 40 40 41 43 42 42 42 43 44 45 46 47 48 49 49 50 50 50 51
59 60 60 60 60 59 58 58 57 58 59 59 59 58 57 57 56 54 53 53 53 52 49 49 49 49 49 51 48 43 40 39 40 40 39 40 42 46 46 45 45 45 47 45 47 47 45 45 47 43 43 43 42 41 39 38 38 37 41 37 35 36 37 39 39 40 38 39 39 39 40 40 39 39 42 43 44 45 46 48 48 49 50 50 50
59 60 61 61 60 59 58 57 58 59 58 58 58 58 58 56 56 55 55 54 54 53 50 50 51 49 48 47 52 52 51 48 46 45 44 43 45 45 46 46 46 45 44 44 45 43 43 42 43 41 41 40 40 38 36 34 34 34 36 34 36 36 37 38 39 37 39 38 38 39 40 40 39 38 40 40 41 42 44 44 46 47 47 49 49
60 60 60 59 59 58 57 57 57 57 56 56 57 58 58 57 57 56 55 55 55 53 53 51 50 50 49 48 46 49 48 47 47 48 48 47 47 45 44 44 44 43 44 43 45 45 41 42 43 41 41 39 38 35 34 33 33 34 35 34 32 32 33 34 35 36 38 37 37 38 39 39 39 37 39 39 38 39 40 41 43 44 45 47 48
60 59 59 58 58 57 58 59 57 56 56 55 55 55 58 57 56 55 55 55 54 53 52 51 50 49 48 47 47 45 46 47 48 48 48 47 46 44 43 43 43 44 42 41 41 41 42 40 40 39 38 38 35 33 32 32 32 34 35 34 32 31 31 33 34 35 36 37 37 37 38 38 40 38 38 39 39 38 38 39 41 42 42 44 47
58 59 61 58 58 58 60 58 56 56 56 55 55 54 54 54 54 56 54 54 54 54 52 50 49 47 48 46 44 43 46 47 47 48 47 45 44 42 41 41 42 42 42 43 42 42 41 40 39 39 38 36 34 32 30 29 31 31 34 34 30 33 32 33 34 35 36 36 36 37 37 38 40 37 36 39 41 39 38 39 39 38 39 40 42
57 56 57 56 57 58 58 58 56 57 55 56 52 54 56 56 54 53 53 53 54 53 50 49 46 47 45 42 40 40 46 47 46 47 47 45 45 42 44 42 40 39 40 39 39 42 41 39 40 38 37 36 34 32 30 27 29 28 31 33 30 31 33 33 34 34 35 34 35 36 37 39 41 39 37 41 38 37 37 37 38 38 37 37 39
60 58 58 58 57 57 57 57 55 54 54 55 55 57 56 55 54 54 54 54 53 51 47 46 46 47 45 43 43 43 45 46 48 44 43 45 43 45 43 41 40 40 40 40 40 41 40 38 37 37 36 33 31 29 25 26 27 26 28 30 31 30 29 32 32 33 33 34 34 37 36 38 40 38 37 38 37 38 36 37 38 37 36 36 37
58 58 58 57 56 56 56 55 55 55 55 55 56 55 55 54 54 54 51 52 51 49 47 46 46 46 46 43 43 43 43 44 43 43 45 44 43 44 43 41 41 41 40 39 39 40 38 36 36 35 34 31 30 29 27 27 26 26 26 26 31 32 28 29 30 30 32 33 33 35 35 38 40 38 38 39 37 37 36 37 38 37 36 35 36
56 57 55 55 54 54 54 55 55 55 56 56 55 54 55 53 52 52 51 51 51 48 47 47 47 46 46 44 43 44 43 43 46 45 44 43 44 44 43 42 42 40 37 39 38 38 38 36 34 33 33 31 31 30 28 29 28 27 27 27 26 26 26 27 28 30 33 33 32 33 36 38 38 38 38 37 38 37 36 37 37 39 36 36 36
57 56 56 54 54 54 54 53 55 54 54 53 52 53 52 52 52 52 52 52 51 49 48 48 46 45 46 44 44 45 44 42 43 43 44 43 43 43 42 42 41 38 37 37 38 37 37 36 34 32 30 30 29 29 30 31 31 30 28 28 29 29 29 29 30 33 32 31 32 33 35 38 38 39 40 38 36 36 36 37 38 37 37 37 36
54 55 55 55 53 53 53 53 52 52 52 51 52 52 51 51 51 52 53 52 51 50 48 47 46 45 45 44 45 45 45 44 43 43 43 43 42 41 39 40 39 38 38 38 38 38 39 37 34 32 31 30 29 28 27 27 27 29 29 28 28 30 30 32 33 32 31 32 34 33 34 37 37 38 40 38 37 35 36 37 38 37 37 37 36
52 54 53 54 53 53 52 53 53 55 52 52 52 52 52 51 51 51 50 51 50 49 47 47 46 45 46 45 46 45 46 45 44 45 44 43 41 40 39 39 38 37 39 39 39 39 38 36 34 33 32 31 31 29 28 27 26 26 25 26 29 29 31 33 31 30 31 31 33 34 35 36 34 34 36 37 35 35 35 35 37 37 37 37 36
49 48 50 53 54 53 52 52 53 52 52 52 51 51 50 50 50 50 50 49 48 47 46 45 44 45 45 45 45 45 45 47 44 43 43 43 40 39 39 38 39 36 36 35 35 38 38 37 35 32 30 29 29 29 28 31 28 28 26 26 28 31 31 32 31 30 33 33 33 34 35 35 33 34 37 36 35 34 36 36 35 37 36 37 35
48 49 48 48 50 52 52 52 51 51 51 51 51 50 50 50 49 49 49 48 46 45 44 45 44 44 43 44 45 45 45 45 44 43 42 41 39 38 39 39 37 36 35 34 35 35 36 35 32 31 30 30 31 31 31 31 30 28 27 27 31 30 30 31 32 32 33 31 32 34 35 34 33 33 34 34 33 33 35 36 37 37 36 35 35
47 46 47 48 47 46 47 48 48 49 49 50 50 49 49 49 49 49 49 47 45 44 44 42 42 43 43 42 45 44 44 43 43 42 41 39 37 36 37 37 38 38 36 36 36 35 35 33 31 31 32 34 33 32 31 29 29 27 30 30 30 30 30 30 29 29 33 34 33 36 36 35 34 34 35 36 33 33 38 37 36 35 36 36 36